MOLNIYA 1-63

Last updated on Sept. 19, 2020, 5:46 a.m. UTC

1 15429U 84124A   20262.50821619  .00001292  00000-0  00000+0 0  9997
2 15429  63.7394 226.7807 6567194 265.6079 335.0522  2.00601742262024
UTC
Height (km)
Latitude
Longitude
Inclination
Orbital Period
UTC large
Height (km)
Speed (km/s)
/
Latitude / Longitude
Inclination (degrees)
Orbital Period (minutes)
Azimuth
Elevation
Range (km)
Doppler Factor
iOS Compass Heading
iOS Angle

Next 30 passes for location: Hong Kong

Rise time Rise Azimuth (degrees) Set time Set Azimuth (degrees) Duration Max altitude (degrees)

No matching passes for this satellites